User: anonymous   Login
Location: ???? ?????
(30.0052°N, 31.2891°E)
Time: 09:34:22
(UTC+00:00)
Language:

Cosmos 1624 Rocket - Orbit

View from above orbital plane
View from above orbital plane
View from above satellite
View from above satellite

Ground track
Ground track

The orbit data is extracted from the following two-line orbital elements,

1 15483U 85006B   22227.22128840  .00000127  00000-0  52065-4 0  9994
2 15483  74.0463 135.0758 0018479   8.0649 103.1214 14.36488184966912
Epoch (UTC): 15 August 2022 05:18:39
Eccentricity: 0.0018479
inclination: 74.0463°
perigee height: 757 km
apogee height: 783 km
right ascension of ascending node: 135.0758°
argument of perigee: 8.0649°
revolutions per day: 14.36488184
mean anomaly at epoch: 103.1214°
orbit number at epoch: 96691

The dashed part of the orbit path shows where the satellite is in the earth's shadow,  

DLR